����������;��������(kWh)
2016-08-29 00:00;86,5
2016-08-29 00:15;93,4
2016-08-29 00:30;93,5
2016-08-29 00:45;96,9
2016-08-29 01:00;88,1
2016-08-29 01:15;85,95
2016-08-29 01:30;83,15
2016-08-29 01:45;83,55
2016-08-29 02:00;86,15
2016-08-29 02:15;81,75
2016-08-29 02:30;82,15
2016-08-29 02:45;85,8
2016-08-29 03:00;82,9
2016-08-29 03:15;81
2016-08-29 03:30;82,4
2016-08-29 03:45;87,45
2016-08-29 04:00;81,4
2016-08-29 04:15;81,05
2016-08-29 04:30;82,5
2016-08-29 04:45;86,05
2016-08-29 05:00;81,45
2016-08-29 05:15;82,65
2016-08-29 05:30;86,55
2016-08-29 05:45;83,7
2016-08-29 06:00;84,7
2016-08-29 06:15;84,8
2016-08-29 06:30;89,85
2016-08-29 06:45;84,45
2016-08-29 07:00;82
2016-08-29 07:15;90,75
2016-08-29 07:30;90,45
2016-08-29 07:45;152,05
2016-08-29 08:00;160,25
2016-08-29 08:15;148,6
2016-08-29 08:30;118,75
2016-08-29 08:45;133,25
2016-08-29 09:00;142,6
2016-08-29 09:15;141,1
2016-08-29 09:30;159,05
2016-08-29 09:45;158,2
2016-08-29 10:00;162,75
2016-08-29 10:15;184,1
2016-08-29 10:30;169,2
2016-08-29 10:45;184,45
2016-08-29 11:00;203,35
2016-08-29 11:15;198,75
2016-08-29 11:30;206,4
2016-08-29 11:45;233,15
2016-08-29 12:00;220
2016-08-29 12:15;224,6
2016-08-29 12:30;242,35
2016-08-29 12:45;229,6
2016-08-29 13:00;234,75
2016-08-29 13:15;223,1
2016-08-29 13:30;239,4
2016-08-29 13:45;221,45
2016-08-29 14:00;220,1
2016-08-29 14:15;202,8
2016-08-29 14:30;205,65
2016-08-29 14:45;249,85
2016-08-29 15:00;225,55
2016-08-29 15:15;194,9
2016-08-29 15:30;204,3
2016-08-29 15:45;201,5
2016-08-29 16:00;198,2
2016-08-29 16:15;197,4
2016-08-29 16:30;187,95
2016-08-29 16:45;191,75
2016-08-29 17:00;189,25
2016-08-29 17:15;166
2016-08-29 17:30;160,3
2016-08-29 17:45;157,65
2016-08-29 18:00;155,85
2016-08-29 18:15;149,85
2016-08-29 18:30;147,95
2016-08-29 18:45;145,85
2016-08-29 19:00;141,4
2016-08-29 19:15;134,05
2016-08-29 19:30;127,9
2016-08-29 19:45;127,85
2016-08-29 20:00;123,7
2016-08-29 20:15;128,2
2016-08-29 20:30;122,05
2016-08-29 20:45;114,35
2016-08-29 21:00;115,1
2016-08-29 21:15;113,75
2016-08-29 21:30;108,75
2016-08-29 21:45;104,8
2016-08-29 22:00;101,4
2016-08-29 22:15;100,1
2016-08-29 22:30;98
2016-08-29 22:45;98,35
2016-08-29 23:00;94,9
2016-08-29 23:15;94,65
2016-08-29 23:30;93,95
2016-08-29 23:45;90,7
2016-08-30 00:00;88,9
2016-08-30 00:15;88,15
2016-08-30 00:30;90,2
2016-08-30 00:45;88,8
2016-08-30 01:00;89,1
2016-08-30 01:15;89,9
2016-08-30 01:30;89,6
2016-08-30 01:45;88,7
2016-08-30 02:00;89,1
2016-08-30 02:15;88,9
2016-08-30 02:30;86,45
2016-08-30 02:45;83,1
2016-08-30 03:00;81,9
2016-08-30 03:15;79,3
2016-08-30 03:30;80,9
2016-08-30 03:45;80,95
2016-08-30 04:00;80,4
2016-08-30 04:15;81,4
2016-08-30 04:30;78,85
2016-08-30 04:45;81,25
2016-08-30 05:00;82,8
2016-08-30 05:15;81,3
2016-08-30 05:30;81,9
2016-08-30 05:45;81
2016-08-30 06:00;88,9
2016-08-30 06:15;89,5
2016-08-30 06:30;93,8
2016-08-30 06:45;92
2016-08-30 07:00;84
2016-08-30 07:15;89,8
2016-08-30 07:30;100,4
2016-08-30 07:45;158,5
2016-08-30 08:00;162,75
2016-08-30 08:15;136,25
2016-08-30 08:30;145,5
2016-08-30 08:45;142,7
2016-08-30 09:00;154,95
2016-08-30 09:15;170,6
2016-08-30 09:30;158,6
2016-08-30 09:45;180,75
2016-08-30 10:00;186,95
2016-08-30 10:15;191,95
2016-08-30 10:30;199,8
2016-08-30 10:45;209,55
2016-08-30 11:00;206,85
2016-08-30 11:15;198,1
2016-08-30 11:30;201,2
2016-08-30 11:45;204
2016-08-30 12:00;206,65
2016-08-30 12:15;219,75
2016-08-30 12:30;221,5
2016-08-30 12:45;237,35
2016-08-30 13:00;250,2
2016-08-30 13:15;230,05
2016-08-30 13:30;234,5
2016-08-30 13:45;235,5
2016-08-30 14:00;271,85
2016-08-30 14:15;239,3
2016-08-30 14:30;236,85
2016-08-30 14:45;244,6
2016-08-30 15:00;235,3
2016-08-30 15:15;239,35
2016-08-30 15:30;232,6
2016-08-30 15:45;228,75
2016-08-30 16:00;209,7
2016-08-30 16:15;205,65
2016-08-30 16:30;203,05
2016-08-30 16:45;202,05
2016-08-30 17:00;202,1
2016-08-30 17:15;181,35
2016-08-30 17:30;173,7
2016-08-30 17:45;175,05
2016-08-30 18:00;172,3
2016-08-30 18:15;162,15
2016-08-30 18:30;160,4
2016-08-30 18:45;160,45
2016-08-30 19:00;155,95
2016-08-30 19:15;146,75
2016-08-30 19:30;140,65
2016-08-30 19:45;138,2
2016-08-30 20:00;132,6
2016-08-30 20:15;129,8
2016-08-30 20:30;126,55
2016-08-30 20:45;125,75
2016-08-30 21:00;118,55
2016-08-30 21:15;120,15
2016-08-30 21:30;115,35
2016-08-30 21:45;122,65
2016-08-30 22:00;114,1
2016-08-30 22:15;117,15
2016-08-30 22:30;120,5
2016-08-30 22:45;117,85
2016-08-30 23:00;117
2016-08-30 23:15;108,15
2016-08-30 23:30;101,3
2016-08-30 23:45;93,6
2016-08-31 00:00;94,25
2016-08-31 00:15;92,55
2016-08-31 00:30;90,85
2016-08-31 00:45;92,15
2016-08-31 01:00;88,1
2016-08-31 01:15;87,35
2016-08-31 01:30;88,1
2016-08-31 01:45;86,1
2016-08-31 02:00;85,2
2016-08-31 02:15;85,35
2016-08-31 02:30;86,55
2016-08-31 02:45;85,9
2016-08-31 03:00;86,5
2016-08-31 03:15;85,3
2016-08-31 03:30;86,95
2016-08-31 03:45;85,35
2016-08-31 04:00;84,7
2016-08-31 04:15;83,45
2016-08-31 04:30;81,65
2016-08-31 04:45;83,4
2016-08-31 05:00;84,5
2016-08-31 05:15;85,2
2016-08-31 05:30;85,2
2016-08-31 05:45;86,1
2016-08-31 06:00;94
2016-08-31 06:15;93,2
2016-08-31 06:30;93,9
2016-08-31 06:45;99,45
2016-08-31 07:00;95,35
2016-08-31 07:15;105,6
2016-08-31 07:30;110,65
2016-08-31 07:45;164,35
2016-08-31 08:00;164,15
2016-08-31 08:15;127,15
2016-08-31 08:30;139,2
2016-08-31 08:45;141,35
2016-08-31 09:00;166,1
2016-08-31 09:15;180,3
2016-08-31 09:30;173,75
2016-08-31 09:45;190
2016-08-31 10:00;185,05
2016-08-31 10:15;200,55
2016-08-31 10:30;208
2016-08-31 10:45;210,7
2016-08-31 11:00;247,95
2016-08-31 11:15;234,7
2016-08-31 11:30;255,65
2016-08-31 11:45;239,1
2016-08-31 12:00;251,1
2016-08-31 12:15;226,95
2016-08-31 12:30;233,65
2016-08-31 12:45;226,85
2016-08-31 13:00;226,55
2016-08-31 13:15;265,85
2016-08-31 13:30;287,35
2016-08-31 13:45;270,95
2016-08-31 14:00;250,35
2016-08-31 14:15;256,7
2016-08-31 14:30;231,55
2016-08-31 14:45;229,55
2016-08-31 15:00;223,3
2016-08-31 15:15;216,5
2016-08-31 15:30;209,95
2016-08-31 15:45;201,35
2016-08-31 16:00;192,5
2016-08-31 16:15;193,45
2016-08-31 16:30;195,85
2016-08-31 16:45;189,1
2016-08-31 17:00;185,5
2016-08-31 17:15;179,65
2016-08-31 17:30;183,75
2016-08-31 17:45;173,6
2016-08-31 18:00;169,8
2016-08-31 18:15;158,15
2016-08-31 18:30;154,75
2016-08-31 18:45;157,9
2016-08-31 19:00;146
2016-08-31 19:15;141,1
2016-08-31 19:30;143,95
2016-08-31 19:45;138,7
2016-08-31 20:00;132,2
2016-08-31 20:15;128
2016-08-31 20:30;126,75
2016-08-31 20:45;121,8
2016-08-31 21:00;115,3
2016-08-31 21:15;111,6
2016-08-31 21:30;110,3
2016-08-31 21:45;112,3
2016-08-31 22:00;105,7
2016-08-31 22:15;103,55
2016-08-31 22:30;105,85
2016-08-31 22:45;103,75
2016-08-31 23:00;105,05
2016-08-31 23:15;103,15
2016-08-31 23:30;103,25
2016-08-31 23:45;99,5
2016-09-01 00:00;95,95
2016-09-01 00:15;96,25
2016-09-01 00:30;101,5
2016-09-01 00:45;102,05
2016-09-01 01:00;102,35
2016-09-01 01:15;93,2
2016-09-01 01:30;91,75
2016-09-01 01:45;92,05
2016-09-01 02:00;91,15
2016-09-01 02:15;90,95
2016-09-01 02:30;91,1
2016-09-01 02:45;90,65
2016-09-01 03:00;91,7
2016-09-01 03:15;91,55
2016-09-01 03:30;90,15
2016-09-01 03:45;91,25
2016-09-01 04:00;90,5
2016-09-01 04:15;89,2
2016-09-01 04:30;90,65
2016-09-01 04:45;89,75
2016-09-01 05:00;91,8
2016-09-01 05:15;92,45
2016-09-01 05:30;91,05
2016-09-01 05:45;92,4
2016-09-01 06:00;99,05
2016-09-01 06:15;98,95
2016-09-01 06:30;102,2
2016-09-01 06:45;102,2
2016-09-01 07:00;94,55
2016-09-01 07:15;102,6
2016-09-01 07:30;114,7
2016-09-01 07:45;121,95
2016-09-01 08:00;125,5
2016-09-01 08:15;141,85
2016-09-01 08:30;147,1
2016-09-01 08:45;147,7
2016-09-01 09:00;162,3
2016-09-01 09:15;163,1
2016-09-01 09:30;165,6
2016-09-01 09:45;183,25
2016-09-01 10:00;253,4
2016-09-01 10:15;252,6
2016-09-01 10:30;242,2
2016-09-01 10:45;241,8
2016-09-01 11:00;228,85
2016-09-01 11:15;222,55
2016-09-01 11:30;214,25
2016-09-01 11:45;220,2
2016-09-01 12:00;215,25
2016-09-01 12:15;220,6
2016-09-01 12:30;218,65
2016-09-01 12:45;223,4
2016-09-01 13:00;265,85
2016-09-01 13:15;278,05
2016-09-01 13:30;264,2
2016-09-01 13:45;238,8
2016-09-01 14:00;220,55
2016-09-01 14:15;217,3
2016-09-01 14:30;217,65
2016-09-01 14:45;251,45
2016-09-01 15:00;222,2
2016-09-01 15:15;215,25
2016-09-01 15:30;221,4
2016-09-01 15:45;207,35
2016-09-01 16:00;200,9
2016-09-01 16:15;208,35
2016-09-01 16:30;191,25
2016-09-01 16:45;190,15
2016-09-01 17:00;203,65
2016-09-01 17:15;214,2
2016-09-01 17:30;181,6
2016-09-01 17:45;187,95
2016-09-01 18:00;172,7
2016-09-01 18:15;175,7
2016-09-01 18:30;170,55
2016-09-01 18:45;170,2
2016-09-01 19:00;162,45
2016-09-01 19:15;152,4
2016-09-01 19:30;151,05
2016-09-01 19:45;142,25
2016-09-01 20:00;135,1
2016-09-01 20:15;132,05
2016-09-01 20:30;132,85
2016-09-01 20:45;132,65
2016-09-01 21:00;131,9
2016-09-01 21:15;130,1
2016-09-01 21:30;127,25
2016-09-01 21:45;121,7
2016-09-01 22:00;121
2016-09-01 22:15;119,9
2016-09-01 22:30;117,95
2016-09-01 22:45;117,05
2016-09-01 23:00;117,85
2016-09-01 23:15;116,65
2016-09-01 23:30;116,6
2016-09-01 23:45;115,95
2016-09-02 00:00;112,7
2016-09-02 00:15;112,7
2016-09-02 00:30;116,6
2016-09-02 00:45;111,95
2016-09-02 01:00;104,95
2016-09-02 01:15;95,4
2016-09-02 01:30;95,9
2016-09-02 01:45;95,7
2016-09-02 02:00;94,8
2016-09-02 02:15;94,05
2016-09-02 02:30;94,2
2016-09-02 02:45;93,95
2016-09-02 03:00;92,7
2016-09-02 03:15;93
2016-09-02 03:30;92,2
2016-09-02 03:45;93,45
2016-09-02 04:00;91,2
2016-09-02 04:15;91,7
2016-09-02 04:30;91,15
2016-09-02 04:45;90,65
2016-09-02 05:00;91,75
2016-09-02 05:15;92,05
2016-09-02 05:30;92,65
2016-09-02 05:45;92,5
2016-09-02 06:00;100,8
2016-09-02 06:15;102,15
2016-09-02 06:30;104,75
2016-09-02 06:45;104,85
2016-09-02 07:00;97
2016-09-02 07:15;101,6
2016-09-02 07:30;108,75
2016-09-02 07:45;127,1
2016-09-02 08:00;128,65
2016-09-02 08:15;138,3
2016-09-02 08:30;145,85
2016-09-02 08:45;145,95
2016-09-02 09:00;156,75
2016-09-02 09:15;165,4
2016-09-02 09:30;169,15
2016-09-02 09:45;159,55
2016-09-02 10:00;172,1
2016-09-02 10:15;235,7
2016-09-02 10:30;235,45
2016-09-02 10:45;235,3
2016-09-02 11:00;216,9
2016-09-02 11:15;206,35
2016-09-02 11:30;195,9
2016-09-02 11:45;197,05
2016-09-02 12:00;207,5
2016-09-02 12:15;255,4
2016-09-02 12:30;238,25
2016-09-02 12:45;224,15
2016-09-02 13:00;220,25
2016-09-02 13:15;212,1
2016-09-02 13:30;213
2016-09-02 13:45;223,75
2016-09-02 14:00;216,1
2016-09-02 14:15;212,45
2016-09-02 14:30;204,55
2016-09-02 14:45;196,45
2016-09-02 15:00;188
2016-09-02 15:15;188,5
2016-09-02 15:30;187,15
2016-09-02 15:45;180,5
2016-09-02 16:00;180,2
2016-09-02 16:15;181,45
2016-09-02 16:30;173,2
2016-09-02 16:45;175,35
2016-09-02 17:00;176,8
2016-09-02 17:15;169,8
2016-09-02 17:30;161,25
2016-09-02 17:45;161,1
2016-09-02 18:00;161,3
2016-09-02 18:15;159,7
2016-09-02 18:30;159,3
2016-09-02 18:45;153,65
2016-09-02 19:00;143,4
2016-09-02 19:15;141,95
2016-09-02 19:30;142,3
2016-09-02 19:45;138,65
2016-09-02 20:00;133,45
2016-09-02 20:15;128,1
2016-09-02 20:30;134
2016-09-02 20:45;130,6
2016-09-02 21:00;121,4
2016-09-02 21:15;122,9
2016-09-02 21:30;122
2016-09-02 21:45;115,95
2016-09-02 22:00;109,75
2016-09-02 22:15;109,2
2016-09-02 22:30;106,8
2016-09-02 22:45;106,3
2016-09-02 23:00;104,7
2016-09-02 23:15;101,7
2016-09-02 23:30;97,3
2016-09-02 23:45;98
2016-09-03 00:00;98,95
2016-09-03 00:15;98,05
2016-09-03 00:30;98,35
2016-09-03 00:45;97,4
2016-09-03 01:00;91,65
2016-09-03 01:15;93,3
2016-09-03 01:30;93,6
2016-09-03 01:45;94,9
2016-09-03 02:00;90,35
2016-09-03 02:15;90,05
2016-09-03 02:30;87
2016-09-03 02:45;88,7
2016-09-03 03:00;86,7
2016-09-03 03:15;88,05
2016-09-03 03:30;87,35
2016-09-03 03:45;88,5
2016-09-03 04:00;88,5
2016-09-03 04:15;86,6
2016-09-03 04:30;85,35
2016-09-03 04:45;84,4
2016-09-03 05:00;86,25
2016-09-03 05:15;85,35
2016-09-03 05:30;85,45
2016-09-03 05:45;88,4
2016-09-03 06:00;89,1
2016-09-03 06:15;88,95
2016-09-03 06:30;97,2
2016-09-03 06:45;92,45
2016-09-03 07:00;88,25
2016-09-03 07:15;90,7
2016-09-03 07:30;90,15
2016-09-03 07:45;90,95
2016-09-03 08:00;88,6
2016-09-03 08:15;92,6
2016-09-03 08:30;92,35
2016-09-03 08:45;95,85
2016-09-03 09:00;93,6
2016-09-03 09:15;99,1
2016-09-03 09:30;96,95
2016-09-03 09:45;94,7
2016-09-03 10:00;95,7
2016-09-03 10:15;95,6
2016-09-03 10:30;95,9
2016-09-03 10:45;94,1
2016-09-03 11:00;99,65
2016-09-03 11:15;99,35
2016-09-03 11:30;102,7
2016-09-03 11:45;107,35
2016-09-03 12:00;108,65
2016-09-03 12:15;111,2
2016-09-03 12:30;108,5
2016-09-03 12:45;108,5
2016-09-03 13:00;113,2
2016-09-03 13:15;113,5
2016-09-03 13:30;113,1
2016-09-03 13:45;106,6
2016-09-03 14:00;105,6
2016-09-03 14:15;103,4
2016-09-03 14:30;106,4
2016-09-03 14:45;99,7
2016-09-03 15:00;101,25
2016-09-03 15:15;105,25
2016-09-03 15:30;99,75
2016-09-03 15:45;98,6
2016-09-03 16:00;101,65
2016-09-03 16:15;104,2
2016-09-03 16:30;98,9
2016-09-03 16:45;110,4
2016-09-03 17:00;114,5
2016-09-03 17:15;109,45
2016-09-03 17:30;108,6
2016-09-03 17:45;107,45
2016-09-03 18:00;107
2016-09-03 18:15;106,5
2016-09-03 18:30;108,55
2016-09-03 18:45;107,85
2016-09-03 19:00;109,8
2016-09-03 19:15;108,9
2016-09-03 19:30;108,9
2016-09-03 19:45;108,1
2016-09-03 20:00;107,85
2016-09-03 20:15;111,25
2016-09-03 20:30;112,2
2016-09-03 20:45;110,9
2016-09-03 21:00;104,8
2016-09-03 21:15;104,1
2016-09-03 21:30;104,8
2016-09-03 21:45;100,7
2016-09-03 22:00;95,7
2016-09-03 22:15;95,45
2016-09-03 22:30;96,1
2016-09-03 22:45;95
2016-09-03 23:00;94,5
2016-09-03 23:15;95,05
2016-09-03 23:30;92,8
2016-09-03 23:45;93,15
2016-09-04 00:00;91,95
2016-09-04 00:15;90,5
2016-09-04 00:30;87,7
2016-09-04 00:45;87,05
2016-09-04 01:00;89,35
2016-09-04 01:15;86,9
2016-09-04 01:30;87,1
2016-09-04 01:45;86,4
2016-09-04 02:00;86,05
2016-09-04 02:15;86,55
2016-09-04 02:30;87,25
2016-09-04 02:45;92,25
2016-09-04 03:00;93
2016-09-04 03:15;93,3
2016-09-04 03:30;85,5
2016-09-04 03:45;86,2
2016-09-04 04:00;86,9
2016-09-04 04:15;86,2
2016-09-04 04:30;85,6
2016-09-04 04:45;84,9
2016-09-04 05:00;86,35
2016-09-04 05:15;85,15
2016-09-04 05:30;88,55
2016-09-04 05:45;92
2016-09-04 06:00;93,35
2016-09-04 06:15;90,4
2016-09-04 06:30;90,9
2016-09-04 06:45;88,9
2016-09-04 07:00;85,65
2016-09-04 07:15;87,15
2016-09-04 07:30;84,8
2016-09-04 07:45;86,35
2016-09-04 08:00;81,2
2016-09-04 08:15;82,1
2016-09-04 08:30;83,05
2016-09-04 08:45;83,25
2016-09-04 09:00;83,75
2016-09-04 09:15;83,95
2016-09-04 09:30;85,25
2016-09-04 09:45;84,35
2016-09-04 10:00;88,3
2016-09-04 10:15;85,35
2016-09-04 10:30;84,1
2016-09-04 10:45;85,8
2016-09-04 11:00;85,35
2016-09-04 11:15;87,2
2016-09-04 11:30;91,95
2016-09-04 11:45;89,1
2016-09-04 12:00;89,8
2016-09-04 12:15;89,3
2016-09-04 12:30;91,75
2016-09-04 12:45;91,05
2016-09-04 13:00;100,4
2016-09-04 13:15;100,95
2016-09-04 13:30;94,4
2016-09-04 13:45;93,45
2016-09-04 14:00;99,8
2016-09-04 14:15;95,35
2016-09-04 14:30;91,45
2016-09-04 14:45;92,75
2016-09-04 15:00;89,85
2016-09-04 15:15;90,7
2016-09-04 15:30;95,8
2016-09-04 15:45;93,1
2016-09-04 16:00;95
2016-09-04 16:15;93,7
2016-09-04 16:30;98,7
2016-09-04 16:45;99,35
2016-09-04 17:00;95,95
2016-09-04 17:15;93
2016-09-04 17:30;97,3
2016-09-04 17:45;100,4
2016-09-04 18:00;99,75
2016-09-04 18:15;100,55
2016-09-04 18:30;98,75
2016-09-04 18:45;96,95
2016-09-04 19:00;98,3
2016-09-04 19:15;98,2
2016-09-04 19:30;99,65
2016-09-04 19:45;95,35
2016-09-04 20:00;99,3
2016-09-04 20:15;101,9
2016-09-04 20:30;103,35
2016-09-04 20:45;103,8
2016-09-04 21:00;99,75
2016-09-04 21:15;102,3
2016-09-04 21:30;104,4
2016-09-04 21:45;100,05
2016-09-04 22:00;95,65
2016-09-04 22:15;95,25
2016-09-04 22:30;96,55
2016-09-04 22:45;93,45
2016-09-04 23:00;93,65
2016-09-04 23:15;92,1
2016-09-04 23:30;91,7
2016-09-04 23:45;97,75

